Hourly Weather Montreal

Today, 7 July, Tuesday

Time Temperature Precipitation Wind Pressure Humidity
00:00 +20°C° 0 mm 2 mps 760 mmHg 70%
01:00 +19°C° 0 mm 2 mps 760 mmHg 73%
02:00 +18°C° 0 mm 2 mps 760 mmHg 74%
03:00 +18°C° 0 mm 2 mps 760 mmHg 76%
04:00 +17°C° 0 mm 2 mps 760 mmHg 77%
05:00 +18°C° 0 mm 2 mps 760 mmHg 76%
06:00 +19°C° 0 mm 3 mps 760 mmHg 75%
07:00 +20°C° 0 mm 3 mps 760 mmHg 75%
08:00 +22°C° 0 mm 3 mps 759 mmHg 71%
09:00 +25°C° 0 mm 2 mps 759 mmHg 68%
10:00 +26°C° 0 mm 2 mps 759 mmHg 65%
11:00 +28°C° 0 mm 2 mps 758 mmHg 62%
12:00 +29°C° 0 mm 2 mps 758 mmHg 58%
13:00 +30°C° 0 mm 3 mps 757 mmHg 55%
14:00 +30°C° 0 mm 3 mps 757 mmHg 56%
15:00 +31°C° 0 mm 3 mps 756 mmHg 58%
16:00 +31°C° 0 mm 3 mps 756 mmHg 59%
17:00 +30°C° 0.1 mm 3 mps 756 mmHg 63%
18:00 +29°C° 0.1 mm 3 mps 756 mmHg 67%
19:00 +28°C° 0.1 mm 2 mps 756 mmHg 71%
20:00 +27°C° 0.1 mm 3 mps 756 mmHg 75%
21:00 +26°C° 0.1 mm 3 mps 755 mmHg 79%
22:00 +25°C° 0.1 mm 3 mps 755 mmHg 82%
23:00 +24°C° 0.2 mm 3 mps 755 mmHg 84%

Tomorrow, 8 July, Wednesday

Time Temperature Precipitation Wind Pressure Humidity
00:00 +24°C° 0.2 mm 3 mps 755 mmHg 86%
01:00 +24°C° 0.2 mm 3 mps 755 mmHg 88%
02:00 +22°C° 0.2 mm 3 mps 755 mmHg 89%
03:00 +22°C° 0.2 mm 3 mps 755 mmHg 90%
04:00 +22°C° 0.2 mm 3 mps 755 mmHg 91%
05:00 +22°C° 0.4 mm 3 mps 755 mmHg 90%
06:00 +24°C° 0.4 mm 3 mps 755 mmHg 89%
07:00 +23°C° 0.4 mm 4 mps 756 mmHg 87%
08:00 +26°C° 0 mm 3 mps 756 mmHg 82%
09:00 +27°C° 0 mm 3 mps 755 mmHg 77%
10:00 +29°C° 0 mm 3 mps 755 mmHg 72%
11:00 +30°C° 0.1 mm 3 mps 755 mmHg 66%
12:00 +31°C° 0.1 mm 2 mps 755 mmHg 61%
13:00 +32°C° 0.1 mm 2 mps 755 mmHg 55%
14:00 +32°C° 0.1 mm 2 mps 755 mmHg 55%
15:00 +32°C° 0.1 mm 2 mps 755 mmHg 55%
16:00 +32°C° 0.1 mm 2 mps 755 mmHg 55%
17:00 +31°C° 0.1 mm 2 mps 755 mmHg 60%
18:00 +30°C° 0.1 mm 2 mps 755 mmHg 65%
19:00 +29°C° 0.1 mm 2 mps 755 mmHg 70%
20:00 +28°C° 0 mm 2 mps 755 mmHg 73%
21:00 +26°C° 0 mm 2 mps 755 mmHg 77%
22:00 +25°C° 0 mm 2 mps 756 mmHg 80%
23:00 +25°C° 0 mm 2 mps 756 mmHg 82%

Day after tomorrow, 9 July, Thursday

Time Temperature Precipitation Wind Pressure Humidity
00:00 +24°C° 0 mm 2 mps 756 mmHg 83%
01:00 +24°C° 0 mm 2 mps 756 mmHg 85%
02:00 +23°C° 0 mm 2 mps 756 mmHg 86%
03:00 +23°C° 0 mm 1 mps 756 mmHg 87%
04:00 +23°C° 0 mm 1 mps 756 mmHg 88%
05:00 +24°C° 0 mm 1 mps 757 mmHg 86%
06:00 +25°C° 0 mm 2 mps 757 mmHg 83%
07:00 +26°C° 0 mm 2 mps 757 mmHg 80%
08:00 +27°C° 0 mm 2 mps 757 mmHg 74%
09:00 +29°C° 0 mm 2 mps 757 mmHg 68%
10:00 +31°C° 0 mm 2 mps 757 mmHg 62%
11:00 +31°C° 0 mm 2 mps 757 mmHg 58%
12:00 +32°C° 0 mm 2 mps 757 mmHg 54%
13:00 +34°C° 0 mm 2 mps 756 mmHg 50%
14:00 +34°C° 0 mm 2 mps 756 mmHg 48%
15:00 +34°C° 0 mm 2 mps 756 mmHg 47%
16:00 +34°C° 0 mm 1 mps 756 mmHg 46%
17:00 +32°C° 0 mm 1 mps 756 mmHg 51%
18:00 +31°C° 0 mm 1 mps 756 mmHg 57%
19:00 +29°C° 0 mm 1 mps 756 mmHg 62%
20:00 +29°C° 0 mm 1 mps 756 mmHg 65%
21:00 +28°C° 0 mm 1 mps 757 mmHg 69%
22:00 +27°C° 0 mm 1 mps 757 mmHg 72%
23:00 +26°C° 0 mm 2 mps 757 mmHg 73%

10 July, Friday

Time Temperature Precipitation Wind Pressure Humidity
00:00 +25°C° 0 mm 2 mps 757 mmHg 75%
01:00 +25°C° 0 mm 2 mps 757 mmHg 77%
02:00 +24°C° 0 mm 2 mps 757 mmHg 79%
03:00 +24°C° 0 mm 2 mps 757 mmHg 81%
04:00 +24°C° 0 mm 2 mps 757 mmHg 83%
05:00 +25°C° 0 mm 2 mps 757 mmHg 82%
06:00 +25°C° 0 mm 2 mps 757 mmHg 80%
07:00 +26°C° 0 mm 2 mps 757 mmHg 78%
08:00 +28°C° 0.1 mm 2 mps 757 mmHg 74%
09:00 +29°C° 0.1 mm 2 mps 757 mmHg 70%
10:00 +30°C° 0.1 mm 2 mps 756 mmHg 66%
11:00 +31°C° 0.2 mm 2 mps 756 mmHg 64%
12:00 +31°C° 0.2 mm 3 mps 756 mmHg 62%
13:00 +33°C° 0.2 mm 3 mps 755 mmHg 60%
14:00 +34°C° 0.1 mm 3 mps 755 mmHg 57%
15:00 +34°C° 0.1 mm 3 mps 754 mmHg 55%
16:00 +35°C° 0.1 mm 3 mps 754 mmHg 52%
17:00 +33°C° 0 mm 3 mps 754 mmHg 58%
18:00 +32°C° 0 mm 4 mps 754 mmHg 63%
19:00 +30°C° 0 mm 4 mps 753 mmHg 69%
20:00 +29°C° 0.4 mm 4 mps 753 mmHg 72%
21:00 +27°C° 0.4 mm 4 mps 753 mmHg 75%
22:00 +26°C° 0.4 mm 5 mps 753 mmHg 79%
23:00 +26°C° 0 mm 4 mps 752 mmHg 80%

11 July, Saturday

Time Temperature Precipitation Wind Pressure Humidity
00:00 +25°C° 0 mm 4 mps 752 mmHg 81%
01:00 +25°C° 0 mm 3 mps 751 mmHg 82%
02:00 +24°C° 0.9 mm 3 mps 750 mmHg 85%
03:00 +24°C° 0.9 mm 3 mps 750 mmHg 88%
04:00 +22°C° 0.9 mm 3 mps 749 mmHg 92%
05:00 +22°C° 4.1 mm 3 mps 748 mmHg 92%
06:00 +22°C° 4.1 mm 3 mps 748 mmHg 93%
07:00 +22°C° 4.1 mm 3 mps 747 mmHg 94%
08:00 +24°C° 0.6 mm 3 mps 747 mmHg 92%
09:00 +24°C° 0.6 mm 2 mps 747 mmHg 91%
10:00 +24°C° 0.6 mm 2 mps 747 mmHg 90%
11:00 +26°C° 0.1 mm 2 mps 746 mmHg 84%
12:00 +27°C° 0.1 mm 2 mps 746 mmHg 78%
13:00 +29°C° 0.1 mm 2 mps 746 mmHg 72%
14:00 +29°C° 0.4 mm 4 mps 746 mmHg 71%
15:00 +29°C° 0.4 mm 5 mps 745 mmHg 70%
16:00 +28°C° 0.4 mm 7 mps 745 mmHg 69%
17:00 +28°C° 0 mm 6 mps 745 mmHg 70%
18:00 +27°C° 0 mm 6 mps 745 mmHg 72%
19:00 +27°C° 0 mm 6 mps 745 mmHg 73%
20:00 +26°C° 0 mm 7 mps 745 mmHg 75%
21:00 +24°C° 0 mm 9 mps 745 mmHg 77%
22:00 +23°C° 0 mm 10 mps 745 mmHg 79%
23:00 +22°C° 0 mm 10 mps 746 mmHg 79%

12 July, Sunday

Time Temperature Precipitation Wind Pressure Humidity
00:00 +21°C° 0 mm 9 mps 746 mmHg 79%
01:00 +21°C° 0 mm 9 mps 746 mmHg 79%
02:00 +20°C° 0 mm 8 mps 747 mmHg 79%
03:00 +18°C° 0 mm 8 mps 747 mmHg 79%
04:00 +17°C° 0 mm 8 mps 748 mmHg 80%
05:00 +17°C° 0 mm 7 mps 748 mmHg 79%
06:00 +17°C° 0 mm 7 mps 749 mmHg 79%
07:00 +17°C° 0 mm 7 mps 750 mmHg 78%
08:00 +18°C° 0 mm 7 mps 750 mmHg 76%
09:00 +20°C° 0 mm 6 mps 751 mmHg 73%
10:00 +21°C° 0 mm 6 mps 751 mmHg 70%
11:00 +22°C° 0 mm 6 mps 752 mmHg 68%
12:00 +23°C° 0 mm 6 mps 752 mmHg 66%
13:00 +23°C° 0 mm 6 mps 752 mmHg 64%
14:00 +23°C° 0 mm 6 mps 752 mmHg 65%
15:00 +23°C° 0 mm 6 mps 752 mmHg 65%
16:00 +23°C° 0 mm 6 mps 752 mmHg 65%
17:00 +22°C° 0 mm 5 mps 753 mmHg 68%
18:00 +21°C° 0 mm 5 mps 753 mmHg 71%
19:00 +20°C° 0 mm 4 mps 753 mmHg 75%
20:00 +20°C° 0 mm 4 mps 754 mmHg 73%
21:00 +19°C° 0 mm 4 mps 754 mmHg 71%
22:00 +19°C° 0 mm 4 mps 755 mmHg 69%
23:00 +19°C° 0 mm 4 mps 755 mmHg 70%
Show more